User: anonymous   Login
Location: Unspecified
(0.0000°N, 0.0000°E)
Time: 21:17:23
(UTC+02:00)
Language:

Delta 2 Rocket - Orbit

View from above orbital plane
View from above orbital plane
View from above satellite
View from above satellite

Ground track
Ground track

The orbit data is extracted from the following two-line orbital elements,

1 20453U 90008B   16125.16099518  .00005251  00000-0  30707-3 0  9998
2 20453  35.6244 110.7214 0294885   9.9076 350.7292 14.81599863387474
Epoch (UTC): 04 May 2016 03:51:49
Eccentricity: 0.0294885
inclination: 35.6244°
perigee height: 418 km
apogee height: 831 km
right ascension of ascending node: 110.7214°
argument of perigee: 9.9076°
revolutions per day: 14.81599863
mean anomaly at epoch: 350.7292°
orbit number at epoch: 38747

The dashed part of the orbit path shows where the satellite is in the earth's shadow,  

DLR